Jackson, MI

7:12 AM EDT on October 21, 2019 (GMT -0400)
Jackson County-Reynolds

Weather History for KJXN - July, 2019

Change the Weather History Date:

Sunday, July 14, 2019

  Actual Average Record
Temperature  
Mean Temperature 73 °F 71 °F  
Max Temperature 86 °F 82 °F 100 °F (1974)
Min Temperature 60 °F 60 °F 43 °F (1950)
Degree Days  
Heating Degree Days 0 0  
Month to date heating degree days 0 1  
Since 1 June heating degree days 58 56  
Since 1 July heating degree days 0 1  
Cooling Degree Days 8 7  
Month to date cooling degree days 136 96  
Year to date cooling degree days 239 259  
Since 1 June cooling degree days 229 222  
Growing Degree Days 22 (Base 50)    
Moisture  
Dew Point 55 °F    
Average Humidity 64    
Maximum Humidity 97    
Minimum Humidity 31    
Precipitation  
Precipitation 0.00 in 0.12 in 1.50 in (1985)
Month to date precipitation 1.36 1.53  
Year to date precipitation 18.08 15.40  
Sea Level Pressure  
Sea Level Pressure 30.11 in    
Wind  
Wind Speed 2 mph (North)    
Max Wind Speed 9 mph    
Max Gust Speed 16 mph    
Visibility 10 miles    
Events      
T = Trace of Precipitation, MM = Missing Value Source: NWS Daily Summary

Daily Weather History Graph

Daily Weather History Graph

Search for Another Location

Airport or City:

Astronomy

Jul. 14, 2019 Rise Set
Actual Time 6:13 AM EDT 9:13 PM EDT
Civil Twilight 5:40 AM EDT 9:46 PM EDT
Nautical Twilight 4:57 AM EDT 10:29 PM EDT
Astronomical Twilight 4:06 AM EDT 11:19 PM EDT
Moon 7:35 PM EDT (7/14) 4:14 AM EDT (7/14)
Length of Visible Light 16h 06m
Length of Day
14h 59m
Waxing Gibbous, 95% of the Moon is Illuminated
Jul 14
Waxing Gibbous
Jul 16
Full
Jul 24
Last Quarter
Jul 31
New
Aug 7
First Quarter

Hourly Weather History & Observations

Time (EDT) Temp. Heat Index Dew Point Humidity Pressure Visibility Wind Dir Wind Speed Gust Speed Precip Events Conditions
12:56 AM 73.0 °F - 57.0 °F 57% 30.06 in 10.0 mi North 4.6 mph - N/A   Clear
1:56 AM 70.0 °F - 57.9 °F 65% 30.07 in 10.0 mi NNE 4.6 mph - N/A   Clear
2:56 AM 70.0 °F - 57.9 °F 65% 30.08 in 10.0 mi Calm Calm - N/A   Clear
3:56 AM 70.0 °F - 57.0 °F 63% 30.09 in 10.0 mi Calm Calm - N/A   Clear
4:56 AM 66.9 °F - 55.9 °F 68% 30.09 in 10.0 mi Calm Calm - N/A   Partly Cloudy
5:56 AM 61.0 °F - 59.0 °F 93% 30.12 in 10.0 mi Calm Calm - N/A   Partly Cloudy
6:56 AM 62.1 °F - 59.0 °F 90% 30.13 in 10.0 mi Calm Calm - N/A   Clear
7:56 AM 66.9 °F - 59.0 °F 76% 30.14 in 10.0 mi Calm Calm - N/A   Clear
8:56 AM 71.1 °F - 55.0 °F 57% 30.15 in 10.0 mi NNE 3.5 mph - N/A   Clear
9:56 AM 73.0 °F - 57.0 °F 57% 30.16 in 10.0 mi North 6.9 mph - N/A   Clear
10:56 AM 75.0 °F - 55.9 °F 51% 30.14 in 10.0 mi North - - N/A   Clear
11:56 AM 79.0 °F - 54.0 °F 42% 30.14 in 10.0 mi West 4.6 mph - N/A   Clear
12:56 PM 81.0 °F 80.4 °F 53.1 °F 38% 30.13 in 10.0 mi NW 6.9 mph - N/A   Clear
1:56 PM 81.0 °F - 51.1 °F 35% 30.13 in 10.0 mi ENE 3.5 mph - N/A   Clear
2:56 PM 84.0 °F - 52.0 °F 33% 30.13 in 10.0 mi Variable 4.6 mph - N/A   Clear
3:56 PM 84.0 °F - 50.0 °F 31% 30.13 in 10.0 mi Calm Calm - N/A   Clear
4:56 PM 84.9 °F 83.2 °F 53.1 °F 33% 30.11 in 10.0 mi NNW 3.5 mph - N/A   Clear
5:56 PM 84.9 °F - 52.0 °F 32% 30.11 in 10.0 mi North 5.8 mph - N/A   Clear
6:56 PM 84.0 °F - 51.1 °F 32% 30.10 in 10.0 mi Calm Calm - N/A   Clear
7:56 PM 82.0 °F - 52.0 °F 35% 30.09 in 10.0 mi NNW 4.6 mph - N/A   Clear
8:56 PM 77.0 °F - 53.1 °F 43% 30.10 in 10.0 mi Calm Calm - N/A   Clear
9:56 PM 72.0 °F - 57.0 °F 59% 30.11 in 10.0 mi SSE 3.5 mph - N/A   Clear
10:56 PM 66.9 °F - 60.1 °F 79% 30.12 in 10.0 mi Calm Calm - N/A   Clear
11:56 PM 64.9 °F - 59.0 °F 81% 30.11 in 10.0 mi Calm Calm - N/A   Clear